FW9737 Weather Reports


time (UTC)temp
C
wind
direction
speed
KPH
gust
KPH
rain 1hr
cm
rain 24hr
cm
rain mn
cm
humidity
%
barometer
mb
20260505112017 14 360 1.6 12.9 0.00 0.00 0.00 68 1013.5
20260505111534 13 360 3.2 12.9 0.00 0.00 0.00 68 1013.4
20260505111016 13 360 4.8 12.9 0.00 0.00 0.00 68 1013.3
20260505110519 13 360 4.8 12.9 0.00 0.00 0.00 69 1013.2
20260505102018 13 360 6.4 17.7 0.00 0.00 0.00 69 1012.8
20260505101555 13 360 4.8 17.7 0.00 0.00 0.00 68 1012.6
20260505101016 13 360 6.4 14.5 0.00 0.00 0.00 68 1012.7
20260505100518 14 360 6.4 14.5 0.00 0.00 0.00 68 1012.7
20260505100055 14 360 4.8 12.9 0.00 0.00 0.00 67 1012.6
20260505095520 14 360 4.8 12.9 0.00 0.00 0.00 67 1012.7
20260505095017 14 360 6.4 17.7 0.00 0.00 0.00 67 1012.7
20260505094534 14 360 6.4 17.7 0.00 0.00 0.00 67 1012.7
20260505094018 14 360 4.8 17.7 0.00 0.00 0.00 67 1012.7
20260505093518 14 360 6.4 17.7 0.00 0.00 0.00 67 1012.6
20260505093032 14 360 4.8 16.1 0.00 0.00 0.00 67 1012.6
20260505092517 14 360 6.4 24.1 0.00 0.00 0.00 67 1012.6
20260505092018 14 360 4.8 24.1 0.00 0.00 0.00 67 1012.5
20260505091536 14 360 8.0 22.5 0.00 0.00 0.00 67 1012.5
20260505091016 14 360 6.4 22.5 0.00 0.00 0.00 68 1012.4
20260505090517 14 360 6.4 17.7 0.00 0.00 0.00 68 1012.4
20260505090036 14 360 8.0 17.7 0.00 0.00 0.00 68 1012.4
20260505085518 14 360 6.4 14.5 0.00 0.00 0.00 68 1012.2
20260505085018 15 360 6.4 16.1 0.00 0.00 0.00 68 1012.2
20260505084535 15 360 8.0 16.1 0.00 0.00 0.00 68 1012.2
20260505084017 15 360 4.8 14.5 0.00 0.00 0.00 69 1012.1
20260505083517 15 360 6.4 14.5 0.00 0.00 0.00 69 1012.2
20260505083032 15 360 4.8 9.7 0.00 0.00 0.00 69 1012.1
20260505082517 15 360 3.2 14.5 0.00 0.00 0.00 69 1012.1
20260505082018 15 360 3.2 14.5 0.00 0.00 0.00 69 1012.1
20260505081532 15 360 4.8 12.9 0.00 0.00 0.00 69 1012.2
20260505081015 15 360 4.8 9.7 0.00 0.00 0.00 69 1012.0
20260505080517 15 360 3.2 14.5 0.00 0.00 0.00 69 1011.9
20260505080037 15 360 4.8 16.1 0.00 0.00 0.00 69 1011.9
20260505075517 15 360 4.8 16.1 0.00 0.00 0.00 69 1011.8
20260505075017 15 360 4.8 17.7 0.00 0.00 0.00 69 1011.8
20260505074535 15 360 6.4 17.7 0.00 0.00 0.00 69 1011.8
20260505074019 15 360 6.4 17.7 0.00 0.00 0.00 69 1011.9
20260505073517 15 360 6.4 16.1 0.00 0.00 0.00 70 1011.8
20260505073039 15 360 4.8 14.5 0.00 0.00 0.00 70 1011.7
20260505072517 15 360 4.8 17.7 0.00 0.00 0.00 70 1011.8
20260505072017 15 360 6.4 17.7 0.00 0.00 0.00 69 1011.9
20260505071542 15 360 6.4 12.9 0.00 0.00 0.00 69 1011.8
20260505071017 16 360 3.2 12.9 0.00 0.00 0.00 68 1011.6
20260505070517 16 360 4.8 12.9 0.00 0.00 0.00 68 1011.7
20260505070032 16 360 4.8 14.5 0.00 0.00 0.00 67 1011.6
20260505065517 16 360 6.4 14.5 0.00 0.00 0.00 67 1011.6
20260505065018 16 360 6.4 14.5 0.00 0.00 0.00 66 1011.6
20260505064535 16 360 6.4 14.5 0.00 0.00 0.00 66 1011.5
20260505064017 16 360 8.0 14.5 0.00 0.00 0.00 67 1011.6
20260505063517 16 360 6.4 14.5 0.00 0.00 0.00 67 1011.6
20260505063042 16 360 6.4 12.9 0.00 0.00 0.00 67 1011.6
20260505062517 16 360 6.4 9.7 0.00 0.00 0.00 67 1011.6
20260505062018 16 360 4.8 12.9 0.00 0.00 0.00 67 1011.5
20260505061538 16 360 4.8 12.9 0.00 0.00 0.00 66 1011.6
20260505061016 16 360 4.8 12.9 0.00 0.00 0.00 66 1011.5
20260505060515 16 360 3.2 12.9 0.00 0.00 0.00 66 1011.5
20260505060036 16 360 6.4 12.9 0.00 0.00 0.00 67 1011.5
20260505055518 16 360 3.2 12.9 0.00 0.00 0.00 67 1011.6
20260505055018 16 360 4.8 12.9 0.00 0.00 0.00 67 1011.5
20260505054544 16 360 4.8 12.9 0.00 0.00 0.00 67 1011.6
20260505054017 16 360 1.6 9.7 0.00 0.00 0.00 67 1011.6
20260505053517 16 360 3.2 14.5 0.00 0.00 0.00 67 1011.6
20260505053041 16 360 3.2 14.5 0.00 0.00 0.00 67 1011.5
20260505052517 16 360 3.2 12.9 0.00 0.00 0.00 67 1011.6
20260505052019 16 360 3.2 12.9 0.00 0.00 0.00 67 1011.6
20260505051539 16 360 1.6 9.7 0.00 0.00 0.00 67 1011.5
20260505051017 16 360 1.6 9.7 0.00 0.00 0.00 67 1011.5
20260505050517 16 360 3.2 9.7 0.00 0.00 0.00 67 1011.5
20260505041531 17 360 3.2 9.7 0.00 0.00 0.00 65 1011.6
20260505041020 17 360 3.2 8.0 0.00 0.00 0.00 64 1011.6
20260505040518 17 360 1.6 8.0 0.00 0.00 0.00 64 1011.6
20260505040038 17 360 3.2 8.0 0.00 0.00 0.00 64 1011.7
20260505035519 17 360 1.6 8.0 0.00 0.00 0.00 63 1011.6
20260505035017 18 0 1.6 8.0 0.00 0.00 0.00 63 1011.7
20260505034533 18 360 3.2 9.7 0.00 0.00 0.00 63 1011.6
20260505034017 18 360 3.2 9.7 0.00 0.00 0.00 62 1011.6
20260505033517 18 360 1.6 9.7 0.00 0.00 0.00 62 1011.7
20260505033032 18 0 3.2 9.7 0.00 0.00 0.00 62 1011.7
20260505032517 18 360 1.6 8.0 0.00 0.00 0.00 62 1011.7
20260505032018 18 360 3.2 12.9 0.00 0.00 0.00 62 1011.7
20260505031538 18 360 3.2 16.1 0.00 0.00 0.00 62 1011.8
20260505031020 18 360 8.0 16.1 0.00 0.00 0.00 62 1011.8
20260505030517 18 360 4.8 16.1 0.00 0.00 0.00 62 1011.8
20260505030034 18 360 3.2 16.1 0.00 0.00 0.00 61 1011.7
20260505025518 18 360 4.8 16.1 0.00 0.00 0.00 61 1011.9
20260505025018 18 360 4.8 16.1 0.00 0.00 0.00 61 1011.9
20260505024535 18 360 4.8 17.7 0.00 0.00 0.00 61 1011.9
20260505024017 18 360 4.8 17.7 0.00 0.00 0.00 61 1012.0
20260505023518 18 360 6.4 17.7 0.00 0.00 0.00 62 1012.0
20260505023037 18 360 3.2 17.7 0.00 0.00 0.00 62 1011.9
20260505022518 18 360 1.6 14.5 0.00 0.00 0.00 62 1011.8
20260505022018 18 360 6.4 14.5 0.00 0.00 0.00 62 1011.8
20260505021536 18 360 6.4 12.9 0.00 0.00 0.00 62 1011.8
20260505021017 18 360 1.6 9.7 0.00 0.00 0.00 62 1011.8
20260505020517 18 360 0.0 6.4 0.00 0.00 0.00 61 1011.8
20260505020037 18 360 1.6 9.7 0.00 0.00 0.00 61 1011.9
20260505015519 18 360 3.2 9.7 0.00 0.00 0.00 60 1011.9
20260505015019 18 360 4.8 9.7 0.00 0.00 0.00 60 1011.9
20260505014535 18 360 1.6 8.0 0.00 0.00 0.00 59 1011.8
20260505014017 18 360 3.2 8.0 0.00 0.00 0.00 59 1011.8
20260505013517 18 0 3.2 9.7 0.00 0.00 0.00 58 1011.8
20260505013034 19 360 1.6 9.7 0.00 0.00 0.00 57 1011.8
20260505012517 19 360 1.6 9.7 0.00 0.00 0.00 57 1011.5
20260505012018 19 360 1.6 8.0 0.00 0.00 0.00 56 1011.4
20260505011538 20 360 3.2 14.5 0.00 0.00 0.00 55 1011.4
20260505011018 20 360 3.2 14.5 0.00 0.00 0.00 55 1011.3
20260505010550 20 360 4.8 14.5 0.00 0.00 0.00 54 1011.1
20260505010101 20 360 1.6 16.1 0.00 0.00 0.00 53 1011.3
20260505005518 20 360 3.2 16.1 0.00 0.00 0.00 53 1011.3
20260505005018 20 360 3.2 14.5 0.00 0.00 0.00 52 1011.2
20260505004533 20 360 4.8 16.1 0.00 0.00 0.00 51 1011.1
20260505004018 21 360 4.8 20.9 0.00 0.00 0.00 51 1011.1
20260505003517 21 360 6.4 20.9 0.00 0.00 0.00 49 1011.1
20260505003041 21 360 8.0 19.3 0.00 0.00 0.00 48 1011.1
20260505002517 21 360 8.0 19.3 0.00 0.00 0.00 47 1011.1
20260505002018 21 360 4.8 19.3 0.00 0.00 0.00 47 1011.1
20260505001535 21 360 3.2 12.9 0.00 0.00 0.00 47 1011.1
20260505001018 21 360 3.2 12.9 0.00 0.00 0.00 46 1011.0
20260505000517 21 360 4.8 20.9 0.00 0.00 0.00 46 1011.0
20260505000043 21 360 4.8 20.9 0.00 0.00 0.00 46 1011.0
20260504235518 21 360 3.2 8.0 0.00 0.00 0.00 45 1011.1
20260504235018 22 360 1.6 9.7 0.00 0.00 0.00 45 1011.0
20260504234535 22 360 1.6 14.5 0.00 0.00 0.00 45 1010.8
20260504234021 22 360 3.2 14.5 0.00 0.00 0.00 44 1010.7
20260504233518 22 360 4.8 9.7 0.00 0.00 0.00 45 1010.7
20260504233036 22 360 1.6 14.5 0.00 0.00 0.00 45 1010.7
20260504232518 22 360 3.2 14.5 0.00 0.00 0.00 44 1010.8
20260504232017 22 360 1.6 12.9 0.00 0.00 0.00 44 1010.9
20260504231540 22 360 4.8 12.9 0.00 0.00 0.00 44 1010.9
20260504231017 22 360 3.2 16.1 0.00 0.00 0.00 43 1010.8
20260504230518 22 360 1.6 16.1 0.00 0.00 0.00 41 1010.9
20260504230040 22 360 4.8 17.7 0.00 0.00 0.00 41 1010.8
20260504225517 22 360 4.8 20.9 0.00 0.00 0.00 41 1010.6
20260504225018 22 360 6.4 20.9 0.00 0.00 0.00 41 1010.6
20260504224533 22 360 6.4 20.9 0.00 0.00 0.00 41 1010.6
20260504224019 22 360 3.2 22.5 0.00 0.00 0.00 42 1010.6
20260504223518 22 360 8.0 22.5 0.00 0.00 0.00 41 1010.6
20260504223037 23 360 4.8 22.5 0.00 0.00 0.00 41 1010.6
20260504222518 23 360 6.4 22.5 0.00 0.00 0.00 40 1010.6
20260504222018 23 360 6.4 22.5 0.00 0.00 0.00 40 1010.6
20260504221548 23 360 6.4 22.5 0.00 0.00 0.00 39 1010.6
20260504221018 23 360 6.4 22.5 0.00 0.00 0.00 39 1010.5
20260504220518 23 360 11.3 27.4 0.00 0.00 0.00 39 1010.6
20260504220035 23 360 11.3 27.4 0.00 0.00 0.00 39 1010.6
20260504215518 23 360 6.4 24.1 0.00 0.00 0.00 39 1010.5
20260504215020 23 360 12.9 24.1 0.00 0.00 0.00 38 1010.6
20260504214535 23 0 6.4 24.1 0.00 0.00 0.00 39 1010.6
20260504214017 23 360 9.7 24.1 0.00 0.00 0.00 39 1010.6
20260504213518 23 360 6.4 19.3 0.00 0.00 0.00 38 1010.5
20260504213047 24 360 8.0 20.9 0.00 0.00 0.00 39 1010.6
20260504212519 24 360 8.0 20.9 0.00 0.00 0.00 38 1010.5
20260504212017 24 360 4.8 17.7 0.00 0.00 0.00 37 1010.6
20260504211537 24 360 8.0 17.7 0.00 0.00 0.00 37 1010.5
20260504211018 24 360 6.4 17.7 0.00 0.00 0.00 38 1010.4
20260504210517 23 360 8.0 20.9 0.00 0.00 0.00 38 1010.4
20260504210034 23 360 6.4 22.5 0.00 0.00 0.00 37 1010.3
20260504205517 24 360 9.7 29.0 0.00 0.00 0.00 38 1010.4
20260504205018 24 360 12.9 29.0 0.00 0.00 0.00 36 1010.4
20260504204534 24 360 6.4 24.1 0.00 0.00 0.00 36 1010.4
20260504204018 24 360 8.0 22.5 0.00 0.00 0.00 36 1010.6
20260504203520 23 360 6.4 24.1 0.00 0.00 0.00 37 1010.5
20260504203046 23 360 6.4 24.1 0.00 0.00 0.00 37 1010.7
20260504202519 23 360 8.0 27.4 0.00 0.00 0.00 37 1010.7
20260504202018 23 360 9.7 29.0 0.00 0.00 0.00 36 1010.6
20260504201535 23 360 12.9 29.0 0.00 0.00 0.00 36 1010.7
20260504201017 23 360 8.0 22.5 0.00 0.00 0.00 37 1010.7
20260504200521 23 360 6.4 22.5 0.00 0.00 0.00 37 1010.8
20260504200035 23 360 9.7 24.1 0.00 0.00 0.00 38 1010.9
20260504195517 23 360 9.7 25.7 0.00 0.00 0.00 35 1011.0
20260504195018 23 360 11.3 37.0 0.00 0.00 0.00 36 1011.0
20260504194539 24 360 9.7 37.0 0.00 0.00 0.00 36 1011.0
20260504194018 24 360 8.0 37.0 0.00 0.00 0.00 35 1010.9
20260504193522 24 360 6.4 25.7 0.00 0.00 0.00 35 1011.1
20260504193034 24 360 8.0 22.5 0.00 0.00 0.00 34 1011.1
20260504192517 24 360 8.0 20.9 0.00 0.00 0.00 36 1011.2
20260504192018 24 360 9.7 24.1 0.00 0.00 0.00 36 1011.2
20260504191539 23 360 8.0 24.1 0.00 0.00 0.00 37 1011.3
20260504191018 23 360 11.3 27.4 0.00 0.00 0.00 35 1011.4
20260504190518 23 360 11.3 27.4 0.00 0.00 0.00 34 1011.4
20260504190037 23 360 4.8 24.1 0.00 0.00 0.00 36 1011.6
20260504185517 23 360 8.0 24.1 0.00 0.00 0.00 35 1011.6
20260504185017 23 360 9.7 32.2 0.00 0.00 0.00 36 1011.6
20260504184535 23 360 8.0 32.2 0.00 0.00 0.00 35 1011.8
20260504184018 23 360 9.7 32.2 0.00 0.00 0.00 34 1011.8
20260504183518 23 360 11.3 25.7 0.00 0.00 0.00 35 1011.8
20260504183032 23 360 8.0 25.7 0.00 0.00 0.00 35 1011.8
20260504182520 23 360 12.9 24.1 0.00 0.00 0.00 34 1011.9
20260504182018 23 360 6.4 19.3 0.00 0.00 0.00 35 1012.1
20260504181538 23 360 8.0 29.0 0.00 0.00 0.00 36 1012.1
20260504181020 22 360 9.7 29.0 0.00 0.00 0.00 37 1012.4
20260504180518 23 360 8.0 20.9 0.00 0.00 0.00 36 1012.4
20260504180035 23 360 11.3 20.9 0.00 0.00 0.00 35 1012.6
20260504175517 23 360 8.0 19.3 0.00 0.00 0.00 35 1012.6
20260504175018 22 360 4.8 22.5 0.00 0.00 0.00 36 1012.6
20260504174536 22 360 6.4 27.4 0.00 0.00 0.00 37 1012.7
20260504174018 22 360 11.3 27.4 0.00 0.00 0.00 36 1012.7
20260504173518 22 360 6.4 20.9 0.00 0.00 0.00 39 1012.7
20260504173036 22 360 8.0 20.9 0.00 0.00 0.00 37 1012.8
20260504172518 22 360 8.0 19.3 0.00 0.00 0.00 38 1012.9
20260504172017 22 360 4.8 19.3 0.00 0.00 0.00 38 1013.1
20260504171536 22 360 8.0 19.3 0.00 0.00 0.00 36 1013.2
20260504171018 22 360 8.0 19.3 0.00 0.00 0.00 36 1013.2
20260504170518 21 360 8.0 20.9 0.00 0.00 0.00 36 1013.0
20260504151018 19 360 4.8 16.1 0.00 0.00 0.00 41 1014.4
20260504150517 18 360 6.4 14.5 0.00 0.00 0.00 44 1014.5
20260504141018 17 360 4.8 12.9 0.00 0.00 0.00 45 1014.4
20260504140517 17 360 4.8 14.5 0.00 0.00 0.00 46 1014.6
20260504130517 13 0 3.2 12.9 0.00 0.00 0.00 58 1015.3